Terminal Aerodrome Forecast
Issued by NWS Bismarck, ND

Home | Current Version | Previous Version | Graphics & Text | Print | Product List | Glossary On
Versions: 1 2 3 4 5 6 7 8 9 10 11 12 13 14 15 16 17 18 19 20
000
FTUS43 KBIS 190500
TAFISN
TAF
KISN 190520Z 1906/2006 VRB03KT P6SM SKC
      TEMPO 1909/1913 3SM BR
     FM191800 18007KT P6SM FEW080=

USA.gov is the U.S. government's official web portal to all federal, state and local government web resources and services.